Weather in Masan

South Korea     35°15′15″N   128°37′36″E
temp.,
°C
wind,
m/s
gust,
m/s
humid.,
%
clouds,
%
prec.,
mm/h
press.,
hPa
HPBL,
m
25 january, mon
mon2500:00+5nw228189 0.0 102861
03:00+4n128794 0.0 102775
06:00+4n2287100 0.0 102784
09:00+5n118085 0.0 102898
12:00+11ne255235 0.0 1027892
15:00+12e354562 0.0 1024960
18:00+9ene246198 0.0 1024306
21:00+6nne127572 0.0 102492
26 january, tue
tue2600:00+5n128196 0.0 102367
03:00+5nw128298 0.0 102178
06:00+5n2491100 1.9 1020152
09:00+5nw2495100 7.4 1020192
12:00+5nnw2493100 6.1 1019224
15:00+7nnw2586100 8.9 1017398
18:00+6nnw268579 0.0 1018397
21:00+5nnw398439 0.0 1020496
27 january, wed
wed2700:00+4nnw368580 0.0 1021249
03:00+3nnw248990 0.0 1022164
06:00+2nnw368161 0.0 1023293
09:00+2nnw474341 0.0 1024371
12:00+6nnw37270 0.0 1024605
15:00+8nnw35260 0.0 1023713
18:00+5nnw243133 0.0 1022291
21:00+3n123567 0.0 102397
28 january, thu
thu2800:00+2nnw1238100 0.0 1021100
03:00+2nnw233797 0.1 1020137
06:00+1nw2337100 0.0 1018111
09:00+2nnw1133100 0.1 1018130
12:00+7wsw242267 0.0 1016649
15:00+10wsw5102333 0.0 10132066
18:00+3wnw8155642 0.0 10131683
21:00−2wnw9174949 0.0 10171887
29 january, fri
fri2900:00−4wnw9174640 0.0 10181944
03:00−5wnw9184356 0.0 10191873
06:00−7nw8184318 0.0 10201799
09:00−6wnw818399 0.0 10231760
12:00−4nw815290 0.0 10231673
15:00−3wnw814270 0.0 10231608
18:00−5nw713370 0.0 10241323
21:00−7nw512440 0.0 10261110